User: anonymous   Login
Location: Bailleul
(50.3375°N, 2.8513°E)
Time: 20:06:57
(UTC+00:00)
Language:

Thor Agena Rocket - Orbit

View from above orbital plane
View from above orbital plane
View from above satellite
View from above satellite

Ground track
Ground track

The orbit data is extracted from the following two-line orbital elements,

1 00733U 64002A   21271.47409434  .00000049  00000-0  35500-4 0  9993
2 00733  98.9771 186.2328 0033044 308.8327  50.9907 14.32456530  5807
Epoch (UTC): 28 September 2021 11:22:41
Eccentricity: 0.0033044
inclination: 98.9771°
perigee height: 760 km
apogee height: 807 km
right ascension of ascending node: 186.2328°
argument of perigee: 308.8327°
revolutions per day: 14.32456530
mean anomaly at epoch: 50.9907°
orbit number at epoch: 580

The dashed part of the orbit path shows where the satellite is in the earth's shadow,  

DLR